Location: Olda
(45.8833°N, 9.5500°E)
Time: 15:28:55
(UTC+00:00)

Cosmos 1500 - Pass Details

Date: 03 March 2021
Orbit: 499 x 517 km, 82.5° (Epoch: 11 April)

Event Time Altitude Azimuth Distance (km) Brightness Sun altitude
Rises 18:46:47 0° 198° (SSW) 2,580 6.9 -17.4°
Reaches altitude 10° 18:48:55 10° 203° (SSW) 1,700 6.0 -17.7°
Maximum altitude 18:52:34 53° 281° (W) 618 3.9 -18.4°
Drops below altitude 10° 18:56:15 10° 360° (N) 1,715 6.0 -19.0°
Sets 18:58:25 0° 5° (N) 2,605 6.8 -19.4°
